Weather in Talasea

Papua New Guinea     5°18′58″S   150°01′48″E
temp.,
°C
wind,
m/s
gust,
m/s
humid.,
%
clouds,
%
prec.,
mm/h
press.,
hPa
HPBL,
m
8 march, mon
mon801:00+25sse2283100 0.0 1009151
04:00+25ssw2278100 0.0 1009116
07:00+26sw1174100 0.0 1010111
10:00+29e216591 0.1 1011584
13:00+28nw116897 0.5 1009523
16:00+29wnw336573 0.7 1008665
19:00+27nw1175100 3.4 1010211
22:00+26e2282100 5.5 1012276
9 march, tue
tue901:00+25s1184100 0.1 1009177
04:00+25s2282100 2.1 1009136
07:00+26s1180100 1.4 1010174
10:00+28wsw0070100 1.5 1011533
13:00+28nnw2275100 0.7 1009489
16:00+28nw3378100 1.3 1008530
19:00+27wsw2279100 0.1 1009381
22:00+26ssw1182100 0.4 1011172
10 march, wed
wed1001:00+26sw1183100 0.6 1010109
04:00+25ssw1184100 0.7 1009175
07:00+26sse1185100 0.0 1011154
10:00+28s0073100 0.0 1012474
13:00+28nnw2273100 0.0 1009568
16:00+29nw337198 0.0 1008601
19:00+27nw227798 0.7 1009296
22:00+26wnw348699 11.6 1011151
11 march, thu
thu1101:00+26w2381100 8.3 1010146
04:00+25w3491100 16.4 1009196
07:00+25wsw338593 1.3 1012156
10:00+28wsw227193 1.3 1012433
13:00+29wnw226592 0.1 1010628
16:00+29nw336692 0.9 1009618
19:00+27w117197 0.1 1010469
22:00+27wsw117397 0.1 1011383
12 march, fri
fri1201:00+26wsw1177100 0.0 1010400
04:00+26wnw017772 0.0 1009503
07:00+26w127654 0.0 1011462
10:00+28nnw126963 0.1 1012755
13:00+28nw337384 0.8 1009761
16:00+28nnw337449 0.9 1008687
19:00+27nnw227854 0.1 1009531
22:00+27nw117976 0.1 1011447